Regional Weather Roundup
Issued by NWS Tiyan, Guam

Home | Current Version | Previous Version | Text Only | Print | Product List | Glossary On
Versions: 1 2 3 4 5 6 7 8 9 10 11 12 13 14 15 16 17 18 19 20 21 22 23 24 25 26 27 28
000
ASGM40 PGUM 250710
RWRGUM
WEATHER ROUNDUP FOR THE MARIANAS
NATIONAL WEATHER SERVICE TIYAN GU
500 PM CHST FRI MAY 25 2018

GUZ001>004-250800-
MARIANA ISLANDS-

CITY           SKY/WX    TMP DP  RH WIND       PRES   REMARKS
GUAM AIRPORT   MOSUNNY   88  79  74 E9        29.80R HX 102
ANDERSEN AFB   MOSUNNY   84  77  79 E8        29.81S HX  94
ROTA AIRPORT   MOSUNNY   82  75  78 E6        29.79S
TINIAN AP      NOT AVBL
SAIPAN AP      MOSUNNY   86  79  79 E8        29.80R HX  99

$$





USA.gov is the U.S. government's official web portal to all federal, state and local government web resources and services.